Find Starlink 3343

NORAD ID: 50822 Int'l Des: 2022-001 Owner: SPXS Country: US Constellation: starlink operational
LEOCIRCULAR

Live Position

Loading 3D Globe...

About Starlink 3343

Description loading...

Upcoming Passes

Passes for default location (London). Set your location on the main map for personalized predictions.

Altitude History

Loading altitude history...

Two-Line Element Set

1 50822U 22001V 26121.20534113 .00000416 00000-0 44241-4 0 9993
2 50822 53.2177 293.3689 0001244 86.7211 273.3923 15.08847353238332
Epoch: May 1, 2026 • Age: 7 hours

Current Status

Altitude 556.7 km
Velocity 7.58 km/s
Sub-Earth Point -47.25°S, 120.47°E
Launch Date Jan 6, 2022
Age 4.3 years
Type internet

Technical Details

Classification Payload
Mass 297.00 kg
Dry Mass 275.00 kg
Total Mass 297.00 kg
Length 0.20 m
Diameter 2.80 m
Span 9.00 m
Shape Box + pan
Manufacturer SPXS
Bus Type Starlink
Phase Status In Orbit
Owner/State SPXS/US

Most Searched